Weather History for KLTS - May, 2012

Change the Weather History Date:

Friday, May 18, 2012

  Actual Average Record
Temperature  
Mean Temperature 78 °F -  
Max Temperature 94 °F 83 °F 99 °F (2013)
Min Temperature 63 °F 59 °F 51 °F (2007)
Cooling Degree Days 13    
Growing Degree Days 28 (Base 50)    
Moisture  
Dew Point 53 °F    
Average Humidity 43    
Maximum Humidity 71    
Minimum Humidity 23    
Precipitation  
Precipitation 0.00 in - - ()
Sea Level Pressure  
Sea Level Pressure 29.74 in    
Wind  
Wind Speed 17 mph (SSE)    
Max Wind Speed 30 mph    
Max Gust Speed 40 mph    
Visibility 10 miles    
Events      
Averages and records for this station are not official NWS values.
T = Trace of Precipitation, MM = Missing Value Source: NWS Daily Summary

Daily Weather History Graph

Daily Weather History Graph

Search for Another Location

Airport or City:

Trip Planner

Search our weather history database for the weather conditions in past years. The results will help you decide how hot, cold, wet, or windy it might be!

Date:

Astronomy

May. 18, 2012 Rise Set
Actual Time 6:31 AM CDT 8:35 PM CDT
Civil Twilight 6:03 AM CDT 9:03 PM CDT
Nautical Twilight 5:29 AM CDT 9:38 PM CDT
Astronomical Twilight 4:52 AM CDT 10:15 PM CDT
Moon 4:57 AM CDT (5/18) 6:48 PM CDT (5/18)
Length of Visible Light 15h 00m
Length of Day
14h 04m
Waning Crescent, 5% of the Moon is Illuminated
May 18
Waning Crescent
May 20
New
May 28
First Quarter
Jun 4
Full
Jun 11
Last Quarter

Hourly Weather History & Observations

Time (CDT) Temp. Heat Index Dew Point Humidity Pressure Visibility Wind Dir Wind Speed Gust Speed Precip Events Conditions
12:55 AM 72.3 °F - 53.1 °F 51% 29.79 in 10.0 mi SSE 12.7 mph - N/A   Clear
1:55 AM 72.3 °F - 52.3 °F 49% 29.77 in 10.0 mi SSE 13.8 mph - N/A   Clear
2:55 AM 69.6 °F - 53.1 °F 56% 29.78 in 10.0 mi SSE 8.1 mph - N/A   Clear
3:55 AM 67.3 °F - 53.4 °F 61% 29.78 in 10.0 mi SE 9.2 mph - N/A   Partly Cloudy
4:55 AM 66.0 °F - 53.4 °F 64% 29.78 in 10.0 mi SSE 10.4 mph - N/A   Scattered Clouds
5:55 AM 63.5 °F - 53.4 °F 70% 29.79 in 10.0 mi SE 8.1 mph - N/A   Partly Cloudy
6:55 AM 63.9 °F - 54.1 °F 71% 29.80 in 10.0 mi SE 9.2 mph - N/A   Clear
7:55 AM 66.7 °F - 55.2 °F 66% 29.81 in 10.0 mi SE 11.5 mph - N/A   Clear
8:55 AM 73.8 °F - 55.2 °F 52% 29.82 in 10.0 mi South 20.7 mph 27.6 mph N/A   Clear
9:55 AM 79.9 °F - 55.0 °F 42% 29.81 in 10.0 mi South 25.3 mph 38.0 mph N/A   Clear
10:55 AM 82.6 °F 81.8 °F 55.4 °F 39% 29.79 in 10.0 mi South 24.2 mph 31.1 mph N/A   Clear
11:55 AM 85.8 °F 84.2 °F 54.5 °F 34% 29.77 in 10.0 mi South 26.5 mph 34.5 mph N/A   Clear
12:55 PM 88.2 °F 86.3 °F 54.5 °F 32% 29.75 in 10.0 mi South 26.5 mph 35.7 mph N/A   Clear
1:55 PM 91.4 °F 89.1 °F 53.8 °F 28% 29.72 in 10.0 mi SSE 27.6 mph 35.7 mph N/A   Clear
2:55 PM 93.0 °F - 52.7 °F 25% 29.70 in 10.0 mi SSE 26.5 mph 40.3 mph N/A   Clear
3:55 PM 93.4 °F - 51.1 °F 24% 29.69 in 10.0 mi SSE 25.3 mph 35.7 mph N/A   Clear
4:55 PM 93.9 °F - 50.7 °F 23% 29.67 in 10.0 mi SSE 29.9 mph 34.5 mph N/A   Clear
5:55 PM 92.5 °F - 51.3 °F 24% 29.65 in 10.0 mi SSE 28.8 mph 33.4 mph N/A   Clear
6:55 PM 90.7 °F - 50.9 °F 26% 29.66 in 10.0 mi SSE 27.6 mph 32.2 mph N/A   Clear
7:55 PM 87.3 °F - 50.9 °F 29% 29.66 in 10.0 mi SSE 26.5 mph 34.5 mph N/A   Clear
8:55 PM 82.9 °F - 50.7 °F 33% 29.66 in 10.0 mi SE 24.2 mph 31.1 mph N/A   Clear
9:55 PM 79.5 °F - 53.1 °F 40% 29.69 in 10.0 mi SSE 19.6 mph 31.1 mph N/A   Clear
10:55 PM 77.2 °F - 53.8 °F 44% 29.71 in 10.0 mi SE 17.3 mph - N/A   Clear
11:55 PM 75.7 °F - 55.0 °F 49% 29.71 in 10.0 mi SE 18.4 mph 26.5 mph N/A   Clear